Theta_e
340 341 342 340 336 335 336 336 336 334 330 331 333 334 332 330 329 327 326 328 329 330 330 328 326 323 323 324 326 328 329 329 329 328 328 328 327 327 328 329 328 328 328 329 329 329 328 328 328 328 328 328 327 328 328 328 328 327 328 328 329 329 329 328 327 328 328 328 328 328 328 328 327 328 328 328 328 329 329 326 323 323 325 325 324
339 341 339 335 333 334 334 334 335 335 332 333 334 334 332 331 330 329 328 328 329 330 329 326 324 324 326 328 329 329 329 329 329 328 326 324 323 322 324 325 325 325 324 324 326 326 325 324 324 326 326 326 326 327 327 327 327 326 326 328 328 329 329 328 328 327 328 328 329 329 328 326 327 327 327 328 328 328 329 328 324 323 324 324 324
339 338 334 332 333 333 331 332 334 334 333 334 335 334 332 332 331 330 328 327 329 331 328 325 323 326 328 329 329 328 329 329 328 327 323 321 321 321 323 323 323 322 321 323 326 325 325 324 323 323 323 324 326 326 326 326 326 326 326 328 328 327 328 328 328 328 328 328 328 328 327 327 327 327 327 327 327 326 328 328 327 326 325 324 322
335 333 334 333 332 333 331 333 333 333 333 333 333 332 332 332 331 330 328 328 330 329 327 324 323 326 329 329 328 328 328 327 325 325 324 323 322 322 324 326 325 324 323 325 325 322 325 326 325 324 324 325 326 325 326 326 326 327 327 328 328 327 328 328 327 328 328 328 328 327 326 327 328 328 328 327 326 326 327 327 327 327 326 325 324
332 333 333 331 332 333 332 332 332 332 332 331 330 330 332 331 329 328 328 329 331 328 325 324 323 324 327 326 325 325 323 323 323 324 325 324 322 321 323 325 325 325 324 325 324 321 322 324 324 324 323 326 327 326 326 326 326 326 326 328 328 327 327 328 327 326 327 327 328 328 328 328 328 327 328 328 327 327 327 326 326 326 326 326 326
332 332 330 332 334 333 333 333 333 332 331 330 329 330 330 329 328 329 328 329 330 328 325 324 322 321 322 321 320 320 321 324 324 324 325 324 323 323 325 324 324 325 325 326 325 323 322 322 325 324 321 323 325 325 325 325 326 327 326 328 328 327 327 328 327 326 326 326 327 327 327 328 327 326 327 328 327 328 327 326 326 325 325 326 326
330 330 331 333 333 334 334 333 334 333 331 331 330 330 329 326 326 328 326 326 328 327 324 323 322 320 318 317 318 321 325 327 326 325 326 325 325 325 324 324 324 324 324 323 324 324 324 324 325 325 322 322 323 323 324 325 326 326 326 327 328 327 326 327 327 326 326 326 326 326 326 327 326 325 327 328 327 327 326 325 325 325 325 325 325
329 332 334 333 333 335 334 334 334 332 331 331 330 329 328 326 325 326 325 325 325 324 323 323 321 318 317 320 323 326 328 327 326 326 325 323 323 322 322 323 323 323 323 323 323 323 324 323 324 323 322 323 323 322 324 324 324 323 323 324 325 326 326 326 326 327 326 326 326 326 325 326 326 326 327 327 327 326 325 324 324 323 323 323 323
332 335 336 334 334 335 334 334 333 331 331 329 327 326 326 325 327 327 325 324 323 323 323 322 319 317 320 324 327 328 328 326 325 324 323 321 321 323 323 323 323 322 322 322 321 320 319 319 321 322 322 323 323 323 322 321 319 319 320 322 322 322 324 326 326 326 325 324 324 325 325 325 325 325 326 326 327 326 325 324 323 321 321 321 320
335 336 336 334 335 335 333 333 332 330 331 329 325 324 324 326 327 326 324 322 322 322 322 320 318 319 323 327 327 326 325 325 323 320 320 322 323 323 322 320 319 320 320 320 320 319 319 319 320 323 323 322 321 320 320 319 317 316 317 319 320 321 322 323 323 324 324 323 322 323 323 323 324 325 324 324 326 326 325 324 323 321 320 319 319
337 337 336 336 335 334 333 334 332 331 331 329 325 323 323 326 328 325 323 322 322 322 320 319 321 323 325 327 326 324 321 321 320 318 319 322 322 321 320 319 317 316 317 317 316 315 316 318 320 322 321 320 318 318 320 321 321 320 319 318 319 319 318 319 320 319 319 319 318 319 320 321 323 324 323 323 325 325 325 324 322 319 318 318 318
336 337 336 336 334 334 334 334 333 332 331 329 326 324 323 324 327 324 323 324 322 321 320 320 322 323 323 325 325 322 319 319 317 315 317 320 321 322 322 319 315 312 312 311 310 309 311 314 316 318 318 319 319 318 319 319 319 320 318 315 314 313 312 315 317 316 316 316 315 315 316 320 322 322 323 324 324 323 323 322 321 319 317 317 317
333 335 335 336 334 333 334 334 333 332 330 327 325 325 323 323 325 324 325 327 322 320 321 320 321 321 319 322 324 321 317 315 314 314 317 320 322 323 320 316 314 312 310 308 308 307 308 309 310 311 313 315 316 316 316 315 315 314 312 310 308 307 306 309 312 314 314 314 314 314 315 318 321 320 322 322 322 322 322 321 320 318 317 316 316
333 333 332 333 334 334 334 334 333 331 329 326 325 324 323 322 323 324 326 326 321 319 320 320 321 321 318 322 323 318 312 312 314 316 320 322 323 321 318 316 315 312 308 308 308 307 306 306 306 306 307 308 312 315 315 315 312 308 306 305 305 304 304 305 307 309 312 313 313 313 314 316 319 319 320 320 320 321 320 319 319 317 316 315 314
332 331 329 331 333 334 334 333 332 331 330 329 327 323 322 323 323 325 326 323 320 319 319 320 322 320 318 319 320 313 309 313 317 318 322 323 321 319 318 317 315 311 308 307 306 305 305 305 305 305 305 306 309 311 311 310 308 305 304 305 304 304 304 303 304 306 309 311 311 311 312 315 317 318 320 320 320 319 317 318 318 317 315 314 313
332 331 328 328 332 334 334 333 332 331 330 330 328 324 323 323 324 325 323 320 319 319 319 321 321 321 320 318 316 312 310 315 318 320 322 320 318 319 318 317 314 309 307 305 305 305 305 305 305 304 305 306 306 307 306 306 305 305 306 306 306 306 305 304 304 305 309 312 311 308 309 312 316 318 319 319 318 318 317 318 318 316 315 313 312
331 331 328 327 332 334 333 333 332 331 331 330 328 326 324 323 323 324 322 320 320 320 321 323 323 323 322 318 316 313 312 317 320 321 321 319 318 319 319 317 313 307 305 305 305 305 305 305 306 306 306 307 307 307 307 307 307 307 307 307 307 307 306 306 306 306 308 311 310 307 306 308 311 316 319 319 318 318 318 317 317 316 315 315 313
330 330 329 329 333 334 333 333 332 332 331 329 328 326 323 322 322 322 322 322 321 320 322 324 323 324 323 320 319 316 317 321 321 320 319 317 318 320 318 316 312 306 305 306 305 306 307 307 307 308 308 308 309 309 308 309 308 308 308 308 308 308 308 308 308 308 308 309 309 308 308 308 308 312 317 318 317 317 316 316 316 317 316 315 314
328 328 330 332 334 333 332 333 332 332 330 329 328 327 325 325 326 324 323 324 323 324 325 326 324 323 322 323 322 320 322 323 319 317 317 316 318 319 317 315 309 305 306 306 307 308 307 308 308 308 308 309 309 309 309 309 309 310 310 309 309 309 309 309 309 309 309 309 309 309 310 311 310 310 312 314 314 314 314 314 315 316 316 316 315
328 328 331 332 333 332 331 332 331 331 331 329 328 329 328 329 329 328 326 326 326 326 326 326 325 324 323 322 321 321 324 324 318 313 313 314 316 317 315 312 307 305 307 307 308 308 308 308 308 308 309 309 309 310 311 311 313 316 315 312 313 314 314 312 312 312 312 312 311 309 309 311 312 310 311 312 313 313 313 314 314 314 315 315 315
327 328 330 331 331 331 331 331 330 330 330 329 329 329 328 328 329 329 328 328 327 326 325 324 323 323 322 321 321 322 324 325 319 312 311 313 315 314 312 309 306 306 308 308 308 309 308 309 309 308 309 309 310 310 311 312 316 319 318 316 318 319 318 316 315 315 316 315 314 313 311 309 310 311 312 312 311 312 313 314 314 314 315 315 315
327 327 328 329 330 330 331 330 330 329 329 328 328 328 328 329 329 328 329 329 328 326 324 324 321 322 323 321 320 321 322 324 322 316 312 314 314 313 310 307 307 307 308 308 308 308 309 309 309 309 309 309 310 310 311 316 318 317 317 318 320 321 319 317 317 317 317 316 316 316 314 310 309 312 314 313 311 312 314 315 315 316 316 317 317
328 327 326 327 327 328 329 329 329 329 329 328 327 326 327 328 327 327 327 327 327 326 325 323 321 320 322 322 321 319 319 322 324 319 314 315 316 313 309 307 308 307 307 309 309 308 309 309 310 312 313 312 312 311 312 318 319 316 318 318 319 321 320 318 319 319 318 317 317 317 317 314 313 312 313 313 312 313 314 314 316 316 316 317 317
328 327 326 326 326 326 327 327 327 328 327 327 326 325 325 325 325 324 324 324 325 325 325 324 322 319 320 322 323 321 317 320 324 319 313 315 316 313 309 307 308 308 307 312 313 310 310 313 315 317 317 316 317 315 315 319 320 318 320 320 319 321 320 319 320 320 319 319 318 318 319 318 316 315 315 315 313 313 314 314 316 316 316 316 316
328 328 326 326 325 325 325 325 326 326 326 326 326 326 326 325 324 324 323 323 323 323 323 322 322 321 319 320 323 321 318 321 324 319 314 316 315 312 310 308 309 309 309 314 317 314 314 317 318 319 320 319 321 319 318 321 321 320 322 322 321 321 320 320 321 320 320 320 319 319 320 319 318 317 317 317 316 315 315 315 316 317 317 317 316
327 327 326 325 325 324 323 324 324 324 326 327 326 327 327 326 326 326 325 325 324 322 321 320 321 320 320 320 320 318 317 322 324 320 318 319 316 311 312 312 312 313 312 316 319 317 318 320 319 320 320 320 321 321 320 320 320 321 322 322 321 321 321 321 320 320 320 321 319 320 320 320 319 318 317 318 317 316 316 316 317 317 317 317 317
326 326 326 325 325 325 324 324 323 323 325 327 327 328 328 327 327 327 326 326 326 325 324 323 321 319 320 321 320 319 318 320 322 321 321 321 318 315 316 317 317 317 316 317 319 318 319 320 319 320 320 320 320 321 321 320 320 321 321 321 321 320 319 320 319 318 319 320 319 320 320 320 320 319 318 318 318 317 317 316 316 316 316 317 317
325 325 325 325 326 327 326 325 324 323 325 327 327 328 327 326 326 326 326 326 325 325 325 324 322 320 320 322 322 323 322 321 322 322 321 322 321 319 319 319 319 318 318 318 318 319 319 319 320 319 319 320 320 320 320 321 321 321 320 320 319 317 317 318 317 316 317 318 318 318 319 320 321 321 320 319 318 318 317 317 316 316 316 316 316
324 323 324 324 325 324 325 324 324 323 324 325 326 327 326 326 326 326 326 324 323 322 323 324 324 323 322 322 322 323 323 323 324 323 322 321 321 320 318 318 318 318 318 318 318 319 319 319 320 320 319 319 319 319 320 320 319 318 318 318 318 317 317 317 317 317 316 317 318 316 316 319 320 321 321 319 319 318 318 318 317 316 316 316 316
321 322 323 323 323 323 323 323 323 323 323 323 324 325 325 325 325 325 324 323 321 320 319 322 324 325 324 324 323 323 324 325 325 325 323 321 320 319 316 316 318 318 318 319 319 319 319 320 321 321 320 319 318 319 319 318 317 317 317 317 317 317 316 316 316 317 316 316 316 315 316 319 319 320 320 319 319 319 319 318 318 318 317 317 316
320 320 321 321 321 321 322 322 322 322 322 321 322 322 322 323 323 324 323 322 322 322 322 321 324 325 325 325 324 324 324 324 324 324 322 321 319 319 317 317 318 318 318 319 319 319 320 320 321 320 320 318 317 318 318 318 317 317 317 316 316 316 316 315 316 316 316 316 315 315 317 318 317 317 318 318 318 318 318 318 318 318 318 317 317
314 315 317 317 317 318 319 320 321 321 322 321 320 320 321 321 321 321 322 321 321 322 323 323 323 323 324 325 324 324 323 323 323 322 321 321 320 319 319 319 319 319 319 319 319 320 321 321 320 319 318 318 317 316 316 316 316 316 315 315 316 317 317 317 317 317 317 317 316 316 316 316 316 316 314 313 313 314 315 317 318 318 318 317 317
310 312 313 314 314 315 315 315 316 318 320 320 320 320 320 320 320 321 322 321 320 320 320 321 321 322 323 323 322 321 322 321 321 320 319 321 321 320 319 320 320 321 320 320 320 320 320 319 318 317 317 317 316 315 316 316 316 315 314 314 317 318 317 318 317 317 317 317 317 316 316 316 315 314 311 310 310 308 309 312 316 317 317 317 317
310 311 312 313 314 314 314 314 314 316 316 317 319 319 320 320 319 320 320 320 320 320 320 320 320 320 321 321 319 319 320 320 320 320 320 320 320 320 319 319 320 321 321 320 320 319 319 318 317 316 316 315 315 316 316 316 315 315 314 313 315 317 317 317 315 313 314 314 314 315 316 314 312 311 310 308 307 305 305 309 312 314 315 316 316
311 311 312 312 313 314 314 314 314 314 315 315 316 317 317 318 318 318 318 318 318 319 319 319 319 319 319 320 319 320 321 320 320 320 321 320 319 319 319 319 320 320 320 319 319 319 318 317 316 316 316 315 315 315 314 313 314 316 313 310 312 316 316 315 311 307 307 306 307 312 314 311 308 310 310 307 305 305 305 306 309 310 312 314 315
309 310 311 311 311 312 314 314 313 313 313 313 313 314 314 315 315 314 315 315 315 316 316 316 317 318 318 318 318 319 320 319 319 319 320 319 318 319 319 319 319 318 319 319 318 317 317 316 316 315 313 312 312 311 310 310 312 313 309 308 312 316 316 315 311 306 304 303 305 308 309 307 308 310 310 307 307 308 308 307 306 307 307 309 312
306 307 308 308 309 310 312 313 313 313 312 312 312 312 312 313 313 313 313 313 313 313 313 314 314 314 315 316 316 317 317 318 318 318 318 317 317 317 317 317 317 317 317 317 316 316 315 315 315 313 310 307 306 305 305 305 306 305 305 308 313 315 314 314 311 307 305 305 304 304 304 305 307 306 306 307 308 309 309 309 309 307 305 305 307
306 306 306 306 306 307 309 310 312 312 312 311 311 311 311 311 311 312 312 313 313 312 312 313 312 313 313 313 313 314 315 315 316 316 316 316 316 316 315 314 315 315 316 315 314 314 315 314 314 310 306 303 302 302 302 302 302 302 303 308 313 314 314 314 312 310 309 307 305 304 303 304 304 304 304 305 306 308 310 310 310 309 307 306 306
306 306 307 307 306 306 306 307 308 309 310 310 310 310 311 310 310 310 311 312 312 312 312 312 312 312 312 312 312 313 313 314 314 315 315 315 315 315 314 314 314 314 314 314 313 314 314 313 314 311 306 303 303 303 303 303 303 303 303 308 313 314 314 313 311 310 311 309 307 306 305 304 303 303 303 303 304 307 310 310 310 309 308 307 307
305 305 306 307 306 306 305 305 305 305 306 307 308 308 309 309 309 309 310 311 311 311 312 312 312 312 312 311 312 312 312 312 313 313 313 313 314 314 314 314 313 313 313 313 313 313 312 312 314 312 307 304 304 304 303 303 303 303 303 307 312 314 313 312 310 310 310 309 308 308 307 306 304 303 302 302 302 306 308 309 309 309 308 307 307
303 303 304 305 305 304 304 304 304 304 304 305 306 307 307 308 308 309 309 309 309 309 310 310 310 311 311 310 311 312 312 311 312 312 312 312 312 312 313 313 312 312 312 311 311 312 311 312 312 310 307 305 304 304 304 303 303 303 302 304 309 312 312 311 310 310 309 309 309 308 307 307 306 304 303 301 300 302 306 307 307 307 306 306 306
303 302 301 302 303 303 303 303 303 303 302 302 303 304 305 306 307 308 308 307 307 307 308 308 308 309 309 309 310 311 311 311 311 311 312 312 312 312 312 312 311 311 311 311 311 311 311 312 311 310 309 309 307 304 303 303 303 302 302 302 305 309 311 311 309 309 309 308 308 308 307 306 306 306 305 302 299 299 302 303 304 304 304 304 304
303 302 300 300 301 301 300 301 302 301 300 299 300 302 303 303 303 304 305 306 306 306 306 306 307 307 308 308 309 310 311 311 311 311 311 311 311 311 311 311 311 310 310 311 311 311 311 311 311 311 310 310 310 306 303 302 302 302 302 302 302 304 308 310 308 308 308 307 307 307 306 306 306 305 304 302 299 299 300 300 301 302 302 302 302
303 302 300 299 299 298 298 298 299 299 298 298 299 299 299 299 299 300 301 301 302 303 303 304 305 306 307 307 307 308 309 309 310 310 311 311 311 311 311 311 310 310 310 310 310 311 311 310 310 310 310 310 310 308 303 301 301 301 301 301 301 301 303 306 305 305 306 307 306 306 306 306 306 305 303 301 299 299 300 300 300 300 300 300 300
301 301 299 298 297 297 298 298 298 298 298 297 297 298 299 298 298 297 297 297 298 299 300 302 302 303 304 305 306 307 307 308 308 309 310 311 311 311 311 311 311 310 310 310 310 311 311 310 309 310 310 309 309 309 305 301 300 301 300 300 300 300 300 301 301 301 302 304 305 306 306 305 304 303 301 300 300 300 299 299 299 300 299 298 298
299 299 298 297 297 297 297 298 298 298 297 297 296 298 298 298 297 296 296 297 298 299 299 300 301 300 300 301 303 304 305 306 307 307 308 310 310 310 310 310 311 311 310 310 310 311 311 310 309 309 309 309 309 309 308 303 300 300 300 300 300 300 300 300 300 300 300 300 301 303 303 302 302 301 300 300 300 300 299 299 299 299 298 296 296
299 298 298 298 298 298 297 297 297 297 296 296 297 298 298 298 297 297 297 297 298 299 300 300 301 301 300 300 301 302 303 305 306 307 307 307 308 309 309 310 310 310 310 310 310 310 310 310 309 308 308 309 309 309 309 306 302 300 300 300 300 300 300 300 300 300 300 300 300 301 301 301 301 301 300 300 300 300 300 299 298 297 297 297 297
299 299 299 298 298 298 298 297 297 297 296 296 297 297 298 298 298 298 299 299 298 298 299 299 300 300 300 299 299 298 299 300 301 303 305 306 307 307 308 309 309 309 310 310 309 309 309 308 308 308 307 308 308 309 309 308 305 303 301 300 300 300 300 300 300 300 300 301 301 301 301 301 301 301 301 301 301 300 299 298 297 297 297 298 297
298 298 298 298 298 298 298 297 298 297 297 297 297 297 297 298 298 299 299 299 299 299 299 299 299 300 300 300 299 299 298 298 298 300 301 303 305 306 306 307 307 308 308 309 308 309 308 308 308 307 307 307 308 308 308 308 308 307 304 301 301 301 301 301 300 300 300 301 301 302 302 302 302 302 302 301 300 299 298 298 297 297 296 296 297
298 298 297 297 297 297 297 297 297 297 297 297 297 297 297 298 298 298 298 299 299 299 299 299 299 299 300 300 300 300 300 300 300 300 300 301 302 303 304 305 306 306 307 307 308 308 308 308 307 307 307 307 307 307 307 307 307 307 306 304 303 302 301 301 300 301 301 302 302 302 302 302 302 302 301 300 299 299 298 298 297 297 296 295 296
297 297 296 297 297 297 297 297 297 297 297 297 297 297 297 297 297 297 297 297 298 298 298 298 299 299 300 300 300 300 300 301 301 301 301 301 301 302 302 303 304 304 304 305 305 306 306 306 307 307 306 306 305 305 306 306 307 307 306 305 304 302 301 301 301 302 302 302 302 302 302 302 302 301 300 299 298 298 298 297 296 296 296 296 295
Wind_Speed
16 15 15 12 9 11 11 9 8 8 8 14 22 28 28 26 22 19 17 16 15 14 13 13 12 13 13 12 11 11 13 13 10 9 10 9 9 8 8 7 7 7 6 5 5 5 5 5 5 5 4 4 4 3 2 2 3 2 2 2 3 3 3 4 4 4 3 3 2 2 2 4 5 5 4 3 2 3 7 9 5 4 4 4 3
15 15 12 9 15 14 10 8 6 10 15 20 25 27 26 22 20 20 17 16 16 14 14 15 14 15 14 13 13 12 12 12 10 10 10 9 8 7 8 7 7 7 6 6 5 5 5 4 4 4 3 4 5 4 3 4 4 4 3 3 3 3 2 3 3 3 4 3 3 2 2 4 4 4 4 3 3 4 6 11 8 6 6 6 5
12 13 13 15 13 9 8 10 13 16 18 21 23 22 20 19 20 19 17 17 17 16 16 17 16 16 16 15 13 14 14 12 11 10 9 9 7 7 9 9 8 9 9 7 5 5 5 5 4 4 3 3 3 3 4 3 3 4 4 3 2 3 3 3 1 3 5 2 3 3 3 3 3 2 1 1 3 4 6 10 11 8 8 11 11
14 15 15 12 8 11 14 14 17 19 20 21 20 20 21 21 21 20 19 18 18 17 17 17 17 17 17 16 15 15 15 12 11 11 10 9 8 8 10 10 9 8 7 5 4 5 7 6 5 5 6 6 4 3 4 4 4 3 3 3 1 2 4 3 2 2 4 3 3 3 3 2 0 1 2 4 4 6 7 9 12 10 12 14 12
20 14 8 5 8 14 16 16 19 20 21 20 17 19 22 23 23 24 21 17 16 16 17 16 16 17 17 16 14 13 12 11 11 12 10 9 9 9 10 10 9 8 7 5 4 5 7 7 6 5 7 9 7 4 4 5 4 2 2 3 3 3 3 3 3 3 2 3 3 2 2 1 1 3 5 6 6 8 11 13 15 14 15 15 13
13 5 4 9 12 14 15 17 22 23 20 16 17 22 24 23 23 24 21 17 15 16 16 16 15 15 14 13 12 12 13 12 11 11 10 9 10 11 11 10 10 10 9 6 5 6 6 8 9 5 5 7 7 5 5 7 6 5 4 4 5 5 4 4 5 5 4 4 3 3 2 1 3 5 6 8 9 11 14 16 18 19 18 16 12
11 10 9 11 13 14 16 17 20 20 16 15 20 24 24 24 23 23 22 21 19 19 18 17 15 14 12 12 13 13 14 13 10 10 10 10 10 11 12 11 9 10 9 6 6 7 7 9 10 6 6 7 4 5 8 7 6 6 6 6 6 6 6 7 8 8 8 7 4 3 3 3 4 4 6 8 11 15 15 15 17 18 17 14 12
13 13 11 11 12 15 17 16 16 16 16 19 23 24 23 24 24 23 25 26 23 22 20 18 16 15 14 14 14 13 14 14 13 12 10 10 9 9 10 10 8 8 8 7 7 7 7 8 12 11 8 5 4 5 7 6 7 7 7 7 7 8 9 10 10 10 10 9 9 8 7 7 5 5 7 7 10 16 17 14 14 15 15 15 16
10 10 10 11 12 16 18 17 16 17 20 24 23 23 24 24 23 23 25 27 26 23 21 19 17 17 17 17 15 15 15 14 13 12 10 10 11 11 10 10 9 9 9 9 8 7 6 9 14 13 10 8 6 7 6 6 7 7 7 8 8 9 11 11 12 13 13 12 12 11 10 10 8 6 7 7 10 16 16 14 14 16 18 19 19
10 8 9 11 13 17 19 18 18 20 24 26 24 24 26 25 24 25 26 26 26 24 21 20 18 18 19 18 15 15 14 13 12 11 11 11 11 11 10 8 10 11 11 11 10 9 9 10 13 12 11 10 9 9 8 9 10 9 9 10 10 10 11 13 13 13 13 12 10 10 9 9 10 9 8 9 12 14 15 14 14 17 21 20 19
14 10 10 12 14 18 21 20 20 23 26 26 25 26 27 28 27 27 27 27 27 25 23 21 20 20 20 18 15 14 15 14 12 11 12 13 11 9 8 7 9 11 12 11 10 11 11 12 12 12 13 12 11 11 10 11 11 11 11 11 11 10 10 12 14 13 13 13 12 11 10 9 10 10 10 11 14 16 17 16 15 18 21 21 18
17 14 13 15 17 20 21 21 22 25 27 26 27 28 29 28 28 29 28 27 27 26 24 23 21 21 22 19 15 16 16 14 12 11 12 13 11 10 10 9 8 10 11 10 10 10 11 12 12 13 14 13 12 11 10 10 11 12 11 11 11 11 11 13 15 15 15 15 15 12 11 13 12 11 11 14 16 18 18 18 17 17 19 21 18
16 15 16 19 21 21 22 23 25 26 27 27 25 26 29 28 27 29 29 28 28 27 25 24 22 22 22 19 17 18 16 13 11 12 12 13 13 12 11 10 10 10 10 10 10 10 10 10 10 11 13 13 14 13 11 10 10 11 11 12 12 12 13 13 14 16 16 15 15 14 13 15 13 11 12 16 16 18 19 18 15 16 20 22 20
12 10 15 21 22 21 23 24 26 27 27 26 24 25 28 27 27 29 29 30 29 27 25 24 23 22 21 20 19 18 15 13 14 14 14 13 13 12 11 11 10 10 10 10 9 9 8 9 9 10 10 11 13 14 13 11 9 10 12 12 14 13 13 13 13 15 16 15 13 14 16 16 13 11 12 13 12 14 16 14 15 18 21 21 19
14 10 12 17 21 22 24 23 24 26 25 25 25 26 27 27 30 31 30 31 29 27 26 25 24 23 21 21 19 17 16 15 15 15 15 14 13 13 12 12 11 11 10 9 8 9 9 10 11 11 11 11 12 13 13 12 11 13 14 14 15 16 15 15 15 15 17 16 13 13 15 15 14 13 13 12 11 12 12 10 14 17 18 19 17
20 15 10 13 20 23 24 24 25 26 24 24 26 28 28 29 31 31 29 29 28 27 26 26 25 23 21 21 19 18 17 17 16 16 15 15 15 15 13 12 12 12 11 10 10 11 12 12 13 13 14 13 13 13 14 13 13 14 14 14 15 15 16 16 16 17 17 16 14 13 13 14 14 15 16 15 14 14 11 8 11 14 16 18 17
19 17 13 14 20 21 19 21 26 27 26 26 27 29 30 30 31 30 28 27 27 27 27 26 25 22 21 22 20 18 17 17 17 17 16 16 16 15 14 14 13 12 12 12 13 14 13 14 14 14 14 14 14 13 14 14 13 13 14 14 14 14 15 15 15 16 17 16 14 14 14 14 12 14 16 16 14 12 9 8 11 11 12 16 18
11 14 16 17 19 19 16 19 24 27 26 26 28 30 30 28 28 29 28 27 26 26 26 26 25 24 23 22 20 19 17 16 17 17 17 18 18 17 16 16 15 14 15 15 16 16 15 15 14 14 14 13 12 12 12 11 11 11 11 11 12 12 13 13 13 14 14 15 15 15 16 16 13 13 15 15 14 11 8 8 10 11 10 12 20
11 12 14 16 18 19 19 19 20 21 22 26 29 29 28 26 24 25 28 27 27 26 25 24 24 24 24 23 21 21 18 16 17 18 18 19 19 18 18 17 16 17 18 18 18 17 16 15 14 13 12 11 10 9 9 9 8 8 8 8 9 9 9 10 10 11 11 11 13 13 15 15 13 12 14 14 14 12 9 6 6 10 14 11 15
17 14 14 15 16 17 19 20 19 16 18 23 26 25 25 24 22 23 26 26 26 26 25 24 25 25 25 24 23 22 19 16 17 18 18 20 20 19 19 18 18 19 20 19 19 17 16 15 13 12 10 9 8 8 7 7 7 6 5 6 7 7 6 6 7 8 8 8 8 9 11 12 11 12 13 11 12 12 11 9 6 8 12 11 10
15 15 16 16 15 15 17 19 19 18 17 19 21 22 22 23 22 22 24 26 27 28 26 25 25 26 26 24 23 23 21 17 16 17 19 20 20 20 19 19 20 21 21 20 19 18 16 14 13 11 9 8 7 6 5 5 6 5 4 6 9 7 4 5 6 6 5 5 6 6 6 8 9 12 11 8 9 9 8 9 9 9 10 10 7
11 14 17 16 14 15 17 16 16 18 17 15 18 19 19 20 22 23 25 26 27 27 25 23 23 24 25 25 24 24 21 18 16 17 19 20 20 20 20 20 22 22 22 20 19 18 16 14 12 10 9 7 6 5 5 4 4 4 4 7 9 5 1 3 5 4 3 4 5 3 1 4 7 11 11 8 8 7 6 8 10 8 9 9 6
12 12 14 15 15 16 17 15 14 16 15 13 15 17 16 16 17 19 23 26 27 28 27 25 25 25 24 25 26 26 23 20 18 19 20 20 21 21 21 22 23 23 23 21 19 18 16 14 12 10 8 7 6 5 5 5 3 3 4 5 6 5 3 2 5 4 2 2 3 2 2 3 5 9 9 7 8 10 9 9 9 6 6 8 7
13 13 13 15 16 16 16 16 15 16 15 14 14 15 16 17 17 18 20 23 26 29 29 28 27 26 25 25 25 25 24 23 22 22 22 21 22 21 21 23 24 24 23 20 17 17 16 13 11 10 8 7 6 5 6 6 5 3 3 2 2 2 2 1 3 4 0 5 2 2 2 3 3 4 6 5 6 9 8 6 6 4 2 4 6
12 13 13 14 14 15 15 14 15 15 15 15 14 13 13 15 17 18 19 20 22 24 26 25 25 25 25 24 22 22 22 23 25 25 23 22 23 22 22 23 23 24 23 19 16 16 15 13 12 11 9 9 9 8 6 7 6 5 4 3 2 3 3 3 3 4 3 4 4 1 1 0 1 2 5 5 3 5 7 7 7 4 1 1 3
11 12 12 12 12 13 13 13 14 13 12 11 12 11 11 12 12 14 15 16 17 19 20 22 22 22 23 23 23 23 23 24 24 24 23 23 22 21 21 21 21 21 20 19 16 15 15 13 12 12 11 11 11 10 8 7 6 6 6 7 6 6 6 5 5 5 6 7 6 3 4 5 5 2 3 4 3 4 5 6 6 5 3 3 1
10 10 10 10 11 12 12 11 10 9 8 9 8 7 9 10 10 9 10 11 13 15 15 17 19 20 21 21 21 22 24 24 24 23 22 20 19 20 20 18 18 18 18 18 17 16 15 14 11 11 12 13 14 12 11 8 6 7 8 8 7 7 8 9 8 8 10 10 9 7 6 7 7 4 3 4 5 6 5 3 5 5 5 4 2
11 9 7 7 10 11 10 8 6 5 6 7 6 5 5 7 8 7 7 8 9 9 10 13 17 19 19 18 18 18 20 23 25 25 22 18 16 17 18 17 17 17 17 17 16 15 15 15 14 15 15 14 13 14 13 10 9 9 8 8 9 9 12 13 12 9 10 10 9 9 7 5 6 6 6 6 6 7 6 4 5 8 9 8 6
10 9 8 8 11 12 10 9 7 5 6 5 5 4 3 5 8 7 7 8 6 6 9 12 16 18 19 19 18 17 16 18 22 24 23 20 15 13 15 16 17 17 17 16 16 16 17 17 18 19 18 15 13 13 10 8 7 7 7 9 11 12 12 11 8 6 7 7 7 7 6 5 6 7 8 9 8 8 7 7 7 8 10 12 11
8 7 10 11 13 14 13 12 10 8 7 5 4 5 3 3 5 5 5 6 6 7 9 12 14 16 17 18 18 18 17 17 18 19 20 20 17 14 16 17 17 17 17 18 18 18 19 20 19 18 17 17 15 11 7 6 7 7 8 9 9 8 6 3 1 2 3 4 5 5 4 4 6 8 10 11 11 11 10 10 10 11 11 12 12
8 7 11 14 15 15 13 12 10 8 7 7 6 6 4 2 3 4 4 3 5 7 9 9 12 15 16 16 16 16 15 16 16 17 16 17 18 18 20 22 21 21 20 20 20 19 19 20 18 16 17 17 14 11 9 9 9 7 6 5 2 1 2 4 5 5 5 4 4 4 4 3 4 6 7 8 10 11 12 11 11 12 12 13 14
15 14 16 17 17 17 17 15 12 9 7 6 6 7 8 6 5 6 5 4 4 5 6 6 7 9 11 13 13 13 13 13 14 15 15 15 18 20 22 24 23 22 21 20 19 20 20 18 16 15 15 14 13 14 14 11 8 5 4 4 4 4 4 5 5 6 7 5 3 1 2 3 4 5 5 5 6 7 9 9 9 10 12 13 14
20 20 20 20 19 20 20 20 18 16 13 10 7 8 7 6 5 5 4 4 4 3 4 5 5 5 5 6 6 6 8 8 9 10 12 14 19 21 22 23 21 19 19 19 19 20 19 16 14 13 13 13 12 13 12 8 6 6 6 6 6 5 5 5 5 5 6 5 4 1 2 3 4 5 5 5 5 6 7 8 9 9 10 11 12
22 22 21 20 18 17 18 20 20 19 17 15 12 10 7 6 6 6 6 6 6 5 3 3 4 5 4 3 4 5 5 7 8 10 11 14 17 19 20 20 18 17 18 19 19 18 17 17 15 13 13 13 12 11 10 9 8 8 7 7 7 7 7 6 6 7 7 8 8 5 0 3 4 4 4 5 5 6 7 7 9 9 9 10 12
19 19 18 17 15 14 14 16 18 18 18 16 14 12 10 9 9 9 8 8 8 6 5 5 5 4 3 4 5 6 6 7 9 11 12 13 14 15 16 16 16 15 16 15 14 14 15 15 14 11 11 11 12 12 12 11 10 9 8 8 8 8 6 6 6 6 5 4 7 8 6 4 5 3 4 6 7 7 7 7 9 10 10 11 12
17 15 13 12 12 11 11 12 14 15 16 16 16 17 15 13 13 12 9 8 9 8 7 7 7 6 5 5 6 6 8 10 9 9 10 11 11 12 13 13 13 12 12 11 10 9 10 11 10 9 9 9 10 11 11 11 11 10 9 9 8 6 5 6 6 5 4 3 4 7 8 7 5 5 5 7 8 7 6 6 7 8 9 10 11
21 18 16 12 9 7 6 7 8 10 13 15 16 18 17 15 15 15 11 9 10 10 9 8 8 7 7 6 6 6 7 10 9 8 9 10 10 10 10 10 9 9 9 10 12 12 11 11 11 9 8 8 9 10 10 11 11 11 10 10 10 8 9 8 6 5 4 3 5 7 8 6 5 5 5 5 6 4 2 2 5 8 9 9 8
21 20 21 19 14 9 6 5 5 5 7 9 12 14 15 14 12 12 11 11 12 12 11 9 7 7 6 6 6 6 6 7 7 8 9 9 10 10 9 9 10 10 8 9 12 14 12 11 9 8 8 10 11 11 11 10 10 11 11 11 10 9 11 8 5 4 2 2 4 5 6 6 5 5 4 2 3 5 6 4 5 7 8 9 9
18 15 15 17 17 16 14 11 9 7 5 5 5 5 7 7 6 7 7 7 8 9 10 8 7 7 6 4 3 5 7 8 8 7 8 9 10 10 9 10 11 11 9 9 11 13 13 12 10 9 10 11 11 10 10 10 10 10 10 11 11 9 8 5 4 5 3 2 3 2 3 5 5 4 3 2 3 7 8 7 7 8 7 8 11
15 15 13 12 14 16 16 14 13 12 10 9 8 8 6 3 5 7 3 2 2 2 4 4 4 8 9 5 4 2 4 7 7 6 7 8 8 9 10 10 10 11 10 9 11 13 14 14 13 12 11 10 10 10 10 9 9 9 9 11 12 9 8 7 7 9 7 4 5 3 2 4 5 4 4 4 3 7 10 10 10 11 11 12 13
12 15 15 12 11 12 13 12 12 11 11 9 8 9 9 5 6 7 4 3 3 2 2 2 1 3 4 4 3 1 2 3 3 4 7 8 7 7 9 10 10 10 9 9 12 14 14 14 14 12 11 10 10 9 9 9 9 9 10 12 13 11 9 8 6 8 9 7 6 5 4 5 6 6 7 8 6 7 11 12 12 13 13 14 14
9 11 12 11 10 10 10 11 10 9 10 8 7 8 9 6 6 7 6 5 5 3 3 4 4 4 5 6 3 2 3 4 4 4 6 7 7 6 8 9 10 10 8 8 12 13 11 12 13 10 10 10 9 9 9 9 9 10 11 13 15 13 12 10 8 7 9 7 5 6 7 8 9 10 10 11 10 8 10 12 14 15 16 16 17
8 7 7 8 8 7 8 9 9 9 10 10 8 8 7 5 5 7 8 7 6 5 6 6 5 4 5 6 6 5 5 6 7 8 8 8 9 8 9 10 11 12 11 10 12 13 12 12 12 10 12 13 12 10 11 11 11 12 12 14 13 12 12 11 9 8 8 7 5 6 7 9 11 13 13 13 13 11 11 13 14 15 17 17 18
8 6 6 5 6 7 7 7 7 9 11 11 10 10 10 10 10 9 9 9 9 9 9 9 8 7 6 7 8 9 8 9 10 11 11 12 12 12 12 13 13 14 15 14 14 16 17 16 14 14 16 17 15 13 13 14 14 14 13 14 13 11 12 12 11 10 10 8 7 7 8 9 10 12 14 15 14 12 12 14 15 16 16 15 13
5 5 8 9 8 7 7 6 6 8 10 11 11 12 13 14 15 15 14 14 13 12 12 12 11 10 9 8 9 9 10 10 11 11 12 13 13 14 15 15 14 15 16 16 16 18 19 19 18 18 19 19 19 16 14 15 16 15 14 14 13 12 12 12 12 10 9 9 9 10 10 10 11 13 15 15 13 12 12 13 13 13 12 10 8
6 8 11 12 11 10 8 7 7 7 9 10 10 11 12 14 16 17 16 16 16 14 14 14 14 15 14 12 12 12 12 12 11 11 12 13 13 15 16 16 17 17 17 17 17 18 18 17 17 17 18 20 22 19 16 16 16 15 14 14 13 12 12 11 11 9 7 9 11 12 12 13 14 14 14 12 10 10 11 11 10 10 9 7 6
7 10 12 13 13 12 12 12 12 11 12 12 11 11 12 13 14 15 15 15 15 15 15 15 16 17 16 15 14 14 14 15 13 12 13 13 13 15 16 18 19 19 19 19 20 20 20 18 17 17 16 18 20 19 17 18 17 15 14 14 14 13 12 11 11 10 9 9 10 11 12 13 13 12 11 10 10 9 10 9 7 6 5 4 6
7 8 9 10 10 11 12 14 15 15 15 15 13 13 13 12 13 13 14 15 16 16 17 17 17 17 18 19 19 19 19 20 19 17 16 16 16 16 16 18 21 22 22 22 23 24 23 21 20 19 17 16 17 19 19 19 19 17 15 15 14 12 12 12 10 9 8 9 10 11 12 13 12 11 10 10 9 9 9 7 4 2 2 4 8
8 7 7 8 9 10 12 13 14 15 17 19 18 15 13 13 14 13 13 14 15 16 17 18 18 19 19 19 20 20 20 21 21 20 20 19 19 19 18 19 20 21 22 23 23 24 24 23 21 19 16 14 16 19 21 22 20 18 17 16 13 10 10 10 8 6 7 8 9 10 12 12 12 10 10 10 6 4 5 6 6 5 4 5 6
8 7 7 9 10 10 11 12 13 13 14 15 15 14 13 13 13 13 14 15 15 15 16 16 17 19 20 20 20 19 18 18 19 20 20 20 21 22 22 23 22 21 21 21 21 22 23 22 21 21 20 18 15 16 19 22 20 17 17 15 11 8 10 10 8 7 8 9 9 10 11 12 11 10 9 7 2 2 6 8 9 9 7 5 7
10 10 11 12 12 12 12 12 13 14 13 14 14 14 14 14 14 14 14 16 16 17 18 18 17 16 17 18 19 19 18 17 17 17 18 19 20 21 22 24 26 26 26 26 25 25 25 23 21 22 24 24 20 17 16 18 19 18 17 15 12 10 11 12 10 9 10 11 11 11 11 10 8 7 6 4 3 8 10 8 7 8 8 7 8
Wind_Direction
201 198 198 190 153 125 119 100 78 81 115 145 144 144 147 149 154 158 164 171 169 165 162 160 152 146 144 134 125 116 107 106 108 114 117 111 109 112 115 116 114 113 123 128 117 114 110 107 112 112 113 123 128 134 126 120 131 135 138 159 181 201 208 214 219 221 222 206 209 238 245 262 264 259 275 299 339 31 97 113 135 180 184 198 192
193 180 173 128 96 91 100 116 115 111 129 144 140 139 143 147 155 157 159 168 167 168 167 158 153 151 139 123 119 114 111 120 128 126 121 115 108 108 112 113 107 101 99 99 90 88 97 97 94 96 99 99 109 128 116 108 111 104 106 130 152 169 182 206 222 248 255 207 182 225 242 255 265 256 268 312 7 20 86 108 125 153 142 130 127
173 147 120 94 93 109 129 136 126 118 126 137 140 144 150 159 166 160 160 169 169 172 170 158 155 147 130 125 130 129 131 132 125 113 104 102 100 95 94 87 77 67 66 80 88 90 92 90 90 99 105 90 94 115 91 76 91 105 114 125 137 144 147 154 179 247 260 239 196 221 240 248 250 237 253 16 39 47 81 109 123 136 121 112 123
113 103 95 87 110 136 143 142 129 128 132 132 138 149 156 163 167 159 161 172 174 169 161 155 153 142 133 142 149 147 146 137 119 111 106 107 112 111 104 96 91 88 92 111 144 146 127 122 128 127 123 107 82 77 86 58 35 55 104 103 94 123 139 144 133 188 229 225 213 216 222 251 348 167 124 85 72 74 77 89 101 112 119 121 133
87 83 92 142 157 138 142 146 136 137 140 140 150 157 155 155 157 157 163 173 170 156 148 150 153 148 149 153 153 148 141 126 113 111 113 122 124 121 118 117 120 122 122 118 123 138 138 130 119 114 123 123 108 94 136 138 99 69 86 83 69 87 117 129 105 99 172 191 192 181 192 225 120 145 128 98 79 82 84 87 93 98 105 114 128
100 114 167 165 156 143 145 144 139 144 149 155 160 157 152 148 149 154 158 164 158 146 146 151 154 155 155 152 146 136 124 117 113 113 122 127 119 119 124 124 126 129 131 130 116 110 117 108 94 72 76 111 128 121 115 135 136 117 109 102 82 84 104 109 96 83 87 125 159 168 165 182 143 134 125 112 95 87 87 92 95 92 90 94 107
156 189 184 162 156 151 146 139 143 152 155 158 160 159 154 149 152 154 153 157 156 151 153 154 155 157 152 142 133 124 121 123 126 131 141 142 134 139 144 138 140 149 146 136 114 104 104 106 108 92 53 58 84 104 97 102 114 108 113 117 100 92 99 101 96 88 90 100 110 128 117 117 139 128 121 125 110 95 90 95 100 100 101 100 99
179 178 164 164 166 159 151 144 149 156 154 154 159 162 157 151 156 155 152 155 157 159 161 158 158 158 150 137 127 130 138 143 147 152 160 154 138 132 133 130 132 136 126 110 105 113 116 121 123 113 93 69 44 73 94 97 100 100 102 108 103 96 94 97 98 93 90 86 79 82 83 83 104 134 131 131 123 111 104 100 103 107 107 103 102
174 168 157 157 160 157 154 150 152 157 158 158 160 162 157 153 156 155 155 158 159 163 162 158 160 158 148 139 141 154 158 157 159 162 159 141 129 131 138 139 131 119 114 111 107 106 107 121 126 116 114 129 106 85 89 91 97 99 100 101 96 98 99 98 102 100 90 76 70 74 72 66 76 112 130 126 128 124 117 108 103 104 100 95 99
157 171 158 147 158 158 152 152 155 159 162 161 162 163 160 157 159 158 159 160 161 164 162 158 161 157 146 145 159 167 160 156 159 159 150 141 146 156 159 154 143 133 130 127 121 114 107 114 124 121 121 126 110 92 83 81 86 88 99 104 96 100 107 105 102 104 104 96 89 90 84 71 74 95 116 121 126 125 119 110 103 104 104 101 98
150 152 144 146 159 155 152 156 157 161 165 164 164 167 165 162 163 163 161 161 162 164 162 160 160 157 150 154 171 167 153 155 161 159 156 154 156 151 147 153 155 152 150 146 143 135 122 117 121 123 121 113 102 98 92 90 93 94 100 109 111 113 120 121 114 109 113 112 104 101 102 96 86 90 103 112 118 118 117 114 105 100 103 105 104
148 144 149 153 153 152 158 160 158 163 169 169 170 173 175 170 168 168 164 164 166 164 162 163 161 161 159 160 170 164 158 165 166 162 161 155 148 147 158 164 156 156 155 147 141 134 127 124 127 129 126 118 112 111 104 99 104 107 105 109 114 111 113 126 125 115 114 112 104 100 103 101 90 82 94 109 114 111 112 116 115 109 104 104 107
147 148 160 158 151 154 163 163 162 168 171 170 171 175 179 179 176 173 168 169 170 166 166 167 165 167 164 160 165 166 165 168 167 163 159 152 153 165 171 161 152 155 152 144 140 140 139 135 133 133 131 126 121 115 103 96 102 110 109 109 108 105 108 119 122 118 115 113 110 108 106 103 96 89 97 106 110 113 117 121 126 124 117 113 113
142 158 178 164 152 156 165 167 167 169 171 171 170 172 176 179 180 177 173 173 175 174 172 171 171 171 164 161 169 172 169 167 168 164 157 158 168 170 161 155 160 161 154 154 155 152 148 140 134 130 128 129 127 122 117 112 109 108 106 106 105 102 104 108 112 116 113 108 112 114 112 112 112 112 110 104 103 119 126 125 132 132 126 124 121
157 180 204 174 157 161 165 166 168 171 175 175 175 175 175 176 178 179 179 177 179 181 178 176 177 172 165 167 174 174 168 167 167 161 160 169 170 160 158 165 170 168 167 169 161 148 139 132 128 124 120 122 124 124 123 118 110 105 101 101 101 100 100 102 105 109 105 97 98 111 118 120 119 115 118 118 111 121 128 124 137 139 126 120 120
170 174 201 181 159 159 162 164 168 170 173 174 177 178 178 179 179 181 181 178 180 181 179 178 175 169 168 170 171 172 170 168 165 162 168 174 166 160 168 176 177 177 174 162 147 139 134 129 127 124 120 117 116 116 114 110 106 103 100 98 99 99 99 100 102 104 100 91 86 99 113 121 126 120 120 122 114 122 132 114 126 140 129 123 123
174 169 184 181 158 155 161 164 166 167 167 170 175 178 181 183 182 181 179 177 177 176 176 176 170 168 173 171 170 172 170 168 167 169 174 171 166 168 174 178 183 182 167 153 147 142 137 133 129 126 121 116 113 111 108 105 101 97 95 94 94 95 95 97 98 99 99 95 90 94 97 102 119 128 127 122 113 126 136 91 98 124 131 142 139
188 182 182 173 157 154 158 159 164 166 166 168 173 178 183 186 184 184 180 177 176 173 174 176 173 173 173 170 171 169 165 172 176 177 179 172 169 173 177 181 185 176 162 155 151 146 143 139 135 132 128 122 118 116 111 106 100 96 94 92 90 89 89 89 89 91 94 97 93 91 91 86 94 118 129 123 111 115 120 93 97 103 98 138 150
199 192 178 164 154 154 158 158 160 165 167 169 174 177 179 183 186 187 183 177 175 175 176 179 181 179 173 170 171 165 165 182 186 183 183 177 173 177 182 187 184 172 165 160 155 152 150 146 145 142 137 131 127 123 118 110 103 97 93 92 90 85 84 86 87 85 86 93 95 96 94 84 82 102 116 120 113 105 103 97 105 101 84 101 146
181 171 158 151 146 148 158 159 154 160 166 168 175 177 176 182 186 186 186 181 178 179 180 181 181 181 177 175 173 168 168 183 191 190 186 182 179 183 188 189 180 173 169 165 161 159 157 155 156 152 146 143 138 133 128 118 106 98 93 93 87 74 68 74 81 83 79 81 86 94 103 98 96 98 92 99 110 101 95 88 86 102 87 82 125
160 148 139 137 139 145 156 158 156 161 163 163 172 176 177 183 183 181 186 186 183 182 185 185 184 183 182 179 177 177 174 177 189 194 190 186 185 189 192 189 181 177 174 170 168 167 166 165 164 162 160 158 154 147 137 127 118 115 115 102 93 81 55 61 80 92 95 94 87 86 111 117 114 105 86 82 100 88 75 79 82 91 87 75 85
137 134 132 131 134 140 146 150 154 159 161 162 167 170 174 180 182 185 190 191 188 186 186 188 189 188 188 185 183 185 181 174 183 195 192 188 190 194 196 190 184 182 179 177 175 175 175 173 171 172 173 170 166 160 141 135 142 145 137 113 108 118 115 73 85 86 78 102 113 117 123 115 121 119 110 114 123 104 84 98 101 97 100 95 86
126 125 129 132 134 135 137 140 145 151 155 156 160 167 171 173 178 185 190 192 192 190 187 187 189 190 193 193 189 188 185 175 180 195 195 191 193 197 198 193 188 186 184 181 183 183 181 179 177 177 179 172 170 174 157 157 184 162 141 129 129 159 195 102 93 89 47 25 92 101 27 69 124 140 134 139 140 116 99 112 118 113 125 131 126
125 122 124 127 129 130 132 134 137 141 144 145 152 164 171 177 182 185 190 193 193 194 194 195 198 197 199 200 194 188 184 180 185 195 197 196 197 198 199 196 192 192 188 182 187 190 183 179 177 178 182 175 177 192 171 169 198 186 168 186 156 178 239 87 100 113 171 306 337 85 37 53 110 144 126 118 130 115 98 104 111 99 138 154 148
122 121 123 124 124 127 128 129 130 134 138 143 150 159 167 176 181 184 193 198 199 203 208 211 214 210 206 207 199 191 191 189 190 196 198 198 199 199 200 198 194 195 190 183 190 193 182 179 181 181 186 183 186 204 193 184 209 211 198 232 239 233 258 248 200 171 186 276 295 296 272 238 149 134 114 109 125 129 121 122 117 101 65 80 148
119 115 119 124 122 122 121 119 125 133 139 144 151 157 162 168 175 182 189 195 196 202 210 215 215 208 204 205 201 201 204 197 195 199 199 199 202 201 198 195 195 196 190 185 192 193 184 183 187 186 196 200 195 205 211 205 222 226 216 229 236 237 247 246 243 238 224 233 248 238 218 229 253 260 155 160 182 175 160 156 154 150 137 102 97
120 114 112 119 113 111 115 118 130 147 150 149 150 153 162 168 175 183 189 192 192 193 196 203 206 204 205 207 207 206 202 195 196 203 200 197 202 201 193 188 191 194 192 189 193 195 187 185 192 197 207 210 201 204 217 215 213 225 233 243 253 265 270 263 265 265 250 246 253 252 233 226 243 266 243 215 211 223 233 213 196 202 191 158 123
116 109 92 94 98 98 104 111 123 137 127 130 140 149 170 169 160 167 182 189 195 192 186 195 208 213 213 213 213 206 194 190 196 202 199 194 198 195 186 184 188 189 192 194 195 195 190 188 199 209 213 212 205 206 213 210 208 225 248 268 279 289 285 274 271 264 248 248 260 269 268 244 232 245 256 255 253 254 259 247 228 228 224 213 202
91 106 103 91 85 84 87 89 86 80 80 94 123 134 151 162 161 171 181 183 190 188 190 204 213 214 216 216 214 208 203 199 198 198 196 193 194 191 186 190 194 191 193 197 197 196 197 201 208 215 218 219 217 217 216 213 224 243 266 284 291 293 287 279 271 251 231 235 246 254 264 263 247 246 254 265 279 281 270 262 257 245 239 241 240
66 94 108 99 86 87 92 92 88 83 77 83 119 135 127 150 170 176 175 179 186 186 196 213 216 212 215 217 211 208 210 206 200 198 194 191 193 190 187 192 196 194 196 201 202 201 205 212 217 219 224 228 230 234 236 248 269 281 279 285 297 299 291 285 210 161 165 194 207 203 208 238 254 255 254 258 266 272 270 267 269 265 261 262 262
64 59 84 88 80 79 83 87 92 94 87 82 97 120 117 117 151 151 147 156 169 180 192 210 219 219 220 219 215 213 215 213 210 209 202 197 199 193 186 188 191 193 199 205 207 210 213 219 224 226 230 234 235 235 244 265 277 277 266 266 273 106 89 87 95 99 103 127 160 168 184 225 259 261 261 262 264 268 270 268 264 263 264 265 267
60 60 78 83 76 76 77 77 79 79 79 83 88 95 88 73 87 107 116 126 136 161 173 181 204 216 219 221 222 220 219 218 215 214 212 204 199 194 190 190 191 194 201 205 210 216 219 221 224 224 228 235 235 233 242 257 257 231 197 173 144 111 94 97 100 94 87 86 95 149 219 238 265 269 268 277 277 273 273 270 262 257 257 258 263
59 64 76 77 73 75 75 74 76 76 75 79 89 95 89 76 77 81 85 98 104 125 156 160 168 182 198 214 212 202 206 209 210 218 217 200 192 193 196 198 198 197 202 208 213 220 226 227 225 226 234 244 241 232 230 226 202 186 173 155 135 109 105 116 122 120 119 122 121 112 276 260 263 271 272 281 297 298 285 271 261 254 250 250 254
60 64 72 75 74 73 71 72 77 81 81 85 95 103 101 97 96 86 80 87 87 90 111 127 149 168 179 175 154 152 177 189 187 191 189 182 185 192 198 203 204 203 206 211 215 221 230 238 240 241 242 243 232 210 194 189 182 177 179 169 150 142 148 152 152 158 166 165 153 136 85 285 265 254 262 279 307 318 301 272 259 257 254 252 252
52 56 63 68 70 72 72 71 72 76 80 85 90 94 97 104 108 104 105 107 103 106 105 86 91 127 145 146 145 148 157 161 159 159 162 169 179 187 194 201 204 205 209 214 217 220 226 234 236 228 215 209 202 188 180 184 185 182 187 182 158 151 163 165 156 157 166 170 155 150 166 238 266 267 275 288 306 319 309 281 264 260 257 258 260
46 43 44 51 57 62 68 70 71 76 80 81 80 82 89 98 98 91 90 93 93 98 102 88 85 100 114 125 133 129 125 128 129 133 146 161 170 176 184 192 197 202 203 201 197 193 195 197 185 170 167 174 183 186 187 191 191 187 185 168 145 146 172 178 178 183 184 176 164 172 194 221 244 258 267 282 298 309 309 299 288 280 275 272 270
54 48 44 42 47 64 77 80 82 84 81 79 79 79 83 89 89 84 83 87 87 81 79 78 77 82 92 102 113 122 123 123 122 119 128 142 151 158 168 172 169 170 170 165 157 151 155 165 163 158 163 171 177 182 187 188 182 178 177 158 142 167 199 206 222 226 205 199 201 210 226 229 227 243 250 258 272 267 242 280 300 301 304 305 293
63 59 57 55 54 64 79 87 92 95 86 80 83 86 87 85 74 68 76 92 95 84 76 74 62 56 73 86 92 105 114 119 131 133 126 131 138 138 145 150 142 140 146 146 144 145 153 165 170 168 169 171 171 170 171 172 168 169 171 155 149 189 215 221 244 239 204 249 254 239 246 246 236 245 254 244 233 208 178 188 260 290 313 315 302
66 63 59 54 48 49 54 57 56 57 54 50 52 73 95 93 48 21 43 82 95 92 88 84 69 67 76 70 65 98 111 110 121 135 129 133 146 144 141 143 142 147 156 155 154 159 161 166 175 175 168 167 172 172 170 173 173 174 171 158 160 194 212 200 230 244 223 260 300 304 292 284 276 269 274 269 216 198 180 181 222 248 259 268 273
65 67 65 59 52 50 52 52 48 43 38 39 34 16 2 15 17 4 9 83 100 120 121 126 109 88 77 44 16 52 126 119 118 139 144 148 161 164 160 160 157 165 174 175 177 178 174 174 183 189 184 179 178 181 184 184 182 180 179 171 169 184 192 188 221 246 248 264 284 287 299 310 313 312 304 297 240 208 198 197 216 233 237 243 255
63 67 66 64 58 52 49 46 43 40 36 44 59 43 21 26 33 17 17 45 10 5 95 106 116 64 27 349 355 13 205 168 146 166 171 175 184 183 179 181 179 184 193 194 191 189 186 191 199 202 200 198 191 190 196 197 194 193 190 184 178 178 186 192 210 240 256 267 270 264 272 294 303 309 310 304 282 233 217 219 228 240 246 250 255
52 57 60 57 50 43 41 35 27 23 22 25 42 41 32 45 47 19 4 1 352 352 31 17 352 339 323 302 281 230 221 225 223 200 181 189 210 215 205 199 195 200 209 205 200 198 194 199 211 215 213 213 209 202 204 208 206 202 195 193 191 188 188 187 186 218 248 252 234 244 272 292 292 294 303 303 294 272 249 245 250 257 262 264 264
44 39 45 53 46 30 24 23 9 355 357 360 4 8 3 0 12 5 349 335 331 338 345 335 318 312 315 311 302 282 261 256 252 242 227 221 227 229 224 220 218 220 224 224 220 216 206 205 216 220 217 223 229 220 212 209 204 199 194 193 195 190 184 186 188 203 230 247 247 245 260 275 280 287 299 302 295 285 278 275 274 276 279 281 280
42 17 346 357 15 4 356 360 352 339 336 338 341 339 330 321 319 322 322 317 317 323 322 312 302 300 304 309 307 296 285 280 273 264 256 248 243 241 237 236 237 235 234 236 235 229 224 223 225 221 217 225 233 228 215 205 197 193 189 185 183 181 180 189 202 213 225 245 259 254 253 260 269 281 292 296 294 289 284 283 285 286 289 292 295
31 348 322 326 339 343 344 344 337 328 321 320 324 324 321 318 314 312 313 311 307 305 304 300 296 292 286 284 287 285 280 278 275 269 264 258 252 249 244 240 240 239 238 238 235 232 231 231 228 223 222 229 234 229 216 206 195 187 183 179 176 177 181 192 207 220 234 248 254 255 258 267 276 282 286 289 290 288 285 286 288 291 295 299 298
352 337 330 333 332 328 325 319 311 306 301 302 308 311 307 305 305 307 310 309 306 304 301 296 292 288 284 281 277 275 273 275 276 270 265 264 261 256 251 246 243 241 239 238 236 233 229 226 227 226 226 231 232 225 214 207 197 187 182 180 176 176 179 191 205 217 231 244 252 258 263 269 275 276 279 282 284 283 286 288 288 291 296 293 280
358 349 344 344 340 333 327 320 314 310 303 297 296 297 297 297 298 300 301 298 295 295 295 295 294 292 289 283 276 271 267 266 268 266 262 264 265 260 256 251 246 243 241 240 240 235 227 224 229 233 233 231 225 217 212 209 201 193 189 185 181 179 180 188 201 210 221 234 246 254 259 263 268 274 282 289 289 288 289 283 280 294 305 293 288
347 347 346 344 339 334 330 326 323 321 317 314 308 298 294 294 293 294 295 291 288 285 283 283 285 287 287 284 280 278 273 269 267 264 262 264 265 262 260 258 252 247 244 242 242 238 233 231 234 238 243 240 224 217 219 216 207 203 201 192 184 184 187 192 198 206 221 233 238 245 253 260 270 284 293 290 289 294 292 283 279 292 281 280 302
329 329 328 327 323 320 320 320 320 320 322 325 324 317 309 305 300 297 295 293 291 288 284 281 281 282 283 285 285 284 282 278 273 268 264 263 263 262 263 268 269 262 251 247 249 249 246 244 242 241 245 244 228 222 227 229 222 216 210 202 195 190 196 206 209 207 217 227 233 243 254 261 270 283 288 287 295 309 298 292 295 287 259 248 269
336 336 331 329 325 317 311 312 313 314 316 318 319 317 315 310 305 301 297 292 290 289 286 285 286 284 282 283 283 282 280 279 276 272 268 263 262 260 259 262 269 270 263 256 256 256 254 253 251 245 240 238 233 229 231 231 227 217 208 210 216 208 203 214 222 213 211 221 234 244 252 259 268 278 286 293 296 219 247 267 279 284 285 262 245
328 330 329 329 326 318 313 312 311 311 310 309 308 308 307 305 301 300 298 295 292 288 286 285 285 283 283 285 283 279 275 271 269 268 268 266 265 263 261 259 260 264 265 264 262 262 263 262 259 251 243 239 240 243 237 223 212 207 206 210 222 227 219 220 226 225 223 230 239 248 255 263 270 271 275 277 221 217 234 247 256 277 295 286 268